Location: Moscow
(55.7500°N, 37.5830°E)
Time: 21:54:02
(UTC+03:00)

COSMOS 2251 DEB - Pass Details

Date: 04 July 2022
Orbit: 738 x 847 km, 74.1° (Epoch: 17 August)

Event Time Altitude Azimuth Distance (km) Brightness Sun altitude
Rises 01:02:47 0° 323° (NW) 3,281 ? -11.1°
Reaches altitude 10° 01:06:48 10° 352° (N) 2,324 ? -11.0°
Maximum altitude 01:08:58 12° 17° (NNE) 2,143 ? -11.0°
Drops below altitude 10° 01:11:08 10° 42° (NE) 2,296 ? -11.0°
Sets 01:15:03 0° 72° (ENE) 3,200 ? -10.9°
